Bay City, TX

11:32 AM CST on January 20, 2018 (GMT -0600)
Bay City

Weather History for KBYY - March, 2014

Change the Weather History Date:

Sunday, March 30, 2014

  Actual Average (KLBX) Record (KLBX)
Temperature  
Mean Temperature 62 °F -  
Max Temperature 73 °F 72 °F 84 °F (2002)
Min Temperature 51 °F 57 °F 35 °F (2003)
Degree Days  
Heating Degree Days 3    
Growing Degree Days 12 (Base 50)    
Moisture  
Dew Point 52 °F    
Average Humidity 72    
Maximum Humidity 94    
Minimum Humidity 44    
Precipitation  
Precipitation 0.00 in - - ()
Sea Level Pressure  
Sea Level Pressure 30.17 in    
Wind  
Wind Speed 6 mph (East)    
Max Wind Speed 18 mph    
Max Gust Speed 22 mph    
Visibility 10 miles    
Events      
Averages and records for this station are not official NWS values.
T = Trace of Precipitation, MM = Missing Value Source: NWS Daily Summary

Daily Weather History Graph

Daily Weather History Graph

Search for Another Location

Airport or City:

Trip Planner

Search our weather history database for the weather conditions in past years. The results will help you decide how hot, cold, wet, or windy it might be!

Date:

Astronomy

Mar. 30, 2014 Rise Set
Actual Time 7:15 AM CDT 7:40 PM CDT
Civil Twilight 6:51 AM CDT 8:04 PM CDT
Nautical Twilight 6:24 AM CDT 8:32 PM CDT
Astronomical Twilight 5:55 AM CDT 9:00 PM CDT
Moon 7:02 AM CDT (3/30) 7:51 PM CDT (3/30)
Length of Visible Light 13h 12m
Length of Day
12h 25m
Waning Crescent, 0% of the Moon is Illuminated
Mar 30
Waning Crescent
Mar 30
New
Apr 7
First Quarter
Apr 15
Full
Apr 22
Last Quarter

Hourly Weather History & Observations

Time (CDT) Temp. Dew Point Humidity Pressure Visibility Wind Dir Wind Speed Gust Speed Precip Events Conditions
12:15 AM 55.4 °F 52.0 °F 88% 30.20 in 10.0 mi Calm Calm - N/A   Clear
12:35 AM 54.5 °F 52.0 °F 91% 30.21 in 10.0 mi Calm Calm - N/A   Clear
1:15 AM 54.7 °F 51.6 °F 89% 30.20 in 10.0 mi Calm Calm - N/A   Clear
1:35 AM 53.6 °F 51.3 °F 92% 30.19 in 10.0 mi Calm Calm - N/A   Clear
1:55 AM 52.9 °F 51.3 °F 94% 30.19 in 10.0 mi NE 4.6 mph - N/A   Clear
2:15 AM 52.9 °F 50.5 °F 92% 30.19 in 10.0 mi NE 5.8 mph - N/A   Clear
2:35 AM 54.5 °F 49.5 °F 83% 30.19 in 10.0 mi NE 4.6 mph - N/A   Clear
2:55 AM 54.7 °F 49.1 °F 81% 30.18 in 10.0 mi NE 5.8 mph - N/A   Clear
3:15 AM 55.0 °F 48.4 °F 78% 30.17 in 10.0 mi NE 5.8 mph - N/A   Clear
3:35 AM 55.2 °F 47.8 °F 76% 30.17 in 10.0 mi NE 4.6 mph - N/A   Clear
3:55 AM 54.7 °F 48.0 °F 78% 30.17 in 10.0 mi NE 4.6 mph - N/A   Clear
4:15 AM 53.4 °F 48.2 °F 82% 30.17 in 10.0 mi NE 3.5 mph - N/A   Clear
4:35 AM 54.7 °F 47.7 °F 77% 30.17 in 10.0 mi Calm Calm - N/A   Clear
4:55 AM 54.7 °F 47.8 °F 78% 30.17 in 10.0 mi NE 3.5 mph - N/A   Clear
5:15 AM 52.9 °F 48.2 °F 84% 30.18 in 10.0 mi ENE 3.5 mph - N/A   Clear
5:35 AM 52.2 °F 48.4 °F 87% 30.18 in 10.0 mi ENE 3.5 mph - N/A   Clear
5:55 AM 52.2 °F 48.4 °F 87% 30.19 in 10.0 mi ENE 3.5 mph - N/A   Clear
6:15 AM 53.2 °F 48.2 °F 83% 30.19 in 10.0 mi ENE 3.5 mph - N/A   Clear
6:35 AM 53.6 °F 48.4 °F 82% 30.20 in 10.0 mi ENE 3.5 mph - N/A   Clear
6:55 AM 52.7 °F 48.4 °F 85% 30.21 in 10.0 mi East 3.5 mph - N/A   Clear
7:15 AM 52.3 °F 48.6 °F 87% 30.21 in 10.0 mi East 4.6 mph - N/A   Clear
7:35 AM 51.4 °F 48.7 °F 90% 30.22 in 10.0 mi Calm Calm - N/A   Clear
7:55 AM 52.5 °F 49.8 °F 91% 30.23 in 10.0 mi ENE 3.5 mph - N/A   Clear
8:15 AM 53.8 °F 51.3 °F 91% 30.23 in 10.0 mi East 4.6 mph - N/A   Clear
8:35 AM 55.2 °F 53.1 °F 92% 30.24 in 10.0 mi ENE 4.6 mph - N/A   Clear
8:55 AM 57.2 °F 55.0 °F 92% 30.25 in 10.0 mi East 4.6 mph - N/A   Clear
9:15 AM 60.8 °F 58.3 °F 91% 30.25 in 10.0 mi East 6.9 mph - N/A   Clear
9:35 AM 64.4 °F 60.8 °F 88% 30.25 in 10.0 mi East 10.4 mph - N/A   Clear
9:55 AM 66.7 °F 61.3 °F 83% 30.24 in 10.0 mi ESE 12.7 mph - N/A   Clear
10:15 AM 68.5 °F 60.1 °F 74% 30.24 in 10.0 mi East 16.1 mph - N/A   Clear
10:35 AM 69.8 °F 58.3 °F 67% 30.25 in 10.0 mi ESE 17.3 mph - N/A   Clear
10:55 AM 71.1 °F 55.9 °F 59% 30.24 in 10.0 mi ESE 15.0 mph - N/A   Clear
11:15 AM 72.3 °F 54.9 °F 54% 30.24 in 10.0 mi SE 17.3 mph 20.7 mph N/A   Clear
11:35 AM 72.3 °F 52.5 °F 50% 30.23 in 10.0 mi ESE 16.1 mph - N/A   Clear
11:55 AM 73.0 °F 51.6 °F 47% 30.23 in 10.0 mi ESE 16.1 mph 20.7 mph N/A   Clear
12:15 PM 73.0 °F 50.7 °F 45% 30.23 in 10.0 mi ESE 13.8 mph 20.7 mph N/A   Clear
12:35 PM 73.0 °F 49.8 °F 44% 30.23 in 10.0 mi ESE 13.8 mph 18.4 mph N/A   Clear
12:55 PM 72.5 °F 50.2 °F 45% 30.23 in 10.0 mi ESE 15.0 mph 18.4 mph N/A   Clear
1:15 PM 72.1 °F 52.0 °F 49% 30.21 in 10.0 mi East 16.1 mph 21.9 mph N/A   Clear
1:35 PM 72.0 °F 52.2 °F 50% 30.21 in 10.0 mi East 13.8 mph - N/A   Clear
1:55 PM 72.1 °F 51.3 °F 48% 30.19 in 10.0 mi ESE 15.0 mph - N/A   Clear
2:15 PM 72.5 °F 50.4 °F 46% 30.18 in 10.0 mi East 18.4 mph - N/A   Clear
2:35 PM 71.2 °F 49.3 °F 46% 30.17 in 10.0 mi ESE 15.0 mph 20.7 mph N/A   Clear
2:55 PM 70.3 °F 48.6 °F 46% 30.16 in 10.0 mi ESE 12.7 mph 20.7 mph N/A   Clear
3:15 PM 69.8 °F 47.8 °F 46% 30.16 in 10.0 mi ESE 15.0 mph - N/A   Clear
3:35 PM 70.0 °F 48.9 °F 47% 30.15 in 10.0 mi ESE 12.7 mph - N/A   Clear
3:55 PM 70.7 °F 49.5 °F 47% 30.15 in 10.0 mi ESE 16.1 mph - N/A   Clear
4:15 PM 70.3 °F 51.1 °F 50% 30.15 in 10.0 mi ESE 11.5 mph - N/A   Clear
4:35 PM 69.8 °F 51.6 °F 52% 30.14 in 10.0 mi SE 15.0 mph - N/A   Clear
4:55 PM 70.0 °F 51.6 °F 52% 30.14 in 10.0 mi SE 16.1 mph - N/A   Clear
5:15 PM 69.6 °F 51.8 °F 53% 30.14 in 10.0 mi SE 13.8 mph - N/A   Clear
5:35 PM 69.3 °F 52.2 °F 54% 30.12 in 10.0 mi East 15.0 mph 20.7 mph N/A   Clear
5:55 PM 68.9 °F 52.9 °F 57% 30.12 in 10.0 mi ESE 12.7 mph 20.7 mph N/A   Clear
6:15 PM 68.4 °F 53.1 °F 58% 30.12 in 10.0 mi ESE 15.0 mph - N/A   Clear
6:35 PM 67.5 °F 53.2 °F 60% 30.12 in 10.0 mi ESE 11.5 mph - N/A   Clear
6:55 PM 66.7 °F 53.4 °F 62% 30.11 in 10.0 mi ESE 10.4 mph - N/A   Clear
7:15 PM 65.5 °F 53.2 °F 65% 30.11 in 10.0 mi ESE 9.2 mph - N/A   Clear
7:35 PM 64.0 °F 53.2 °F 68% 30.11 in 10.0 mi ESE 9.2 mph - N/A   Clear
7:55 PM 62.4 °F 53.2 °F 72% 30.11 in 10.0 mi ESE 6.9 mph - N/A   Clear
8:15 PM 60.8 °F 53.4 °F 77% 30.11 in 10.0 mi ESE 6.9 mph - N/A   Clear
8:35 PM 59.7 °F 53.4 °F 80% 30.11 in 10.0 mi East 5.8 mph - N/A   Clear
8:55 PM 59.2 °F 53.2 °F 81% 30.11 in 10.0 mi East 6.9 mph - N/A   Clear
9:15 PM 58.3 °F 53.2 °F 83% 30.11 in 10.0 mi ESE 5.8 mph - N/A   Clear
9:35 PM 58.3 °F 53.6 °F 84% 30.11 in 10.0 mi ESE 5.8 mph - N/A   Clear
9:55 PM 57.6 °F 53.2 °F 85% 30.11 in 10.0 mi East 4.6 mph - N/A   Clear
10:15 PM 56.5 °F 52.9 °F 88% 30.11 in 10.0 mi East 4.6 mph - N/A   Clear
10:35 PM 55.4 °F 52.7 °F 91% 30.11 in 10.0 mi East 5.8 mph - N/A   Clear
10:55 PM 55.8 °F 53.1 °F 91% 30.11 in 10.0 mi East 3.5 mph - N/A   Clear
11:15 PM 55.8 °F 53.1 °F 91% 30.10 in 10.0 mi East 4.6 mph - N/A   Clear
11:35 PM 54.9 °F 52.9 °F 93% 30.09 in 10.0 mi East 5.8 mph - N/A   Clear
11:55 PM 54.9 °F 53.2 °F 94% 30.08 in 10.0 mi East 5.8 mph - N/A   Clear